Station: Cape Wessel  

  Atmospheric Gas Attenuation - ITU Rec 676-11   ----------------- dB/100km -----------------
Date Time Temp RH % AH g/m3 Dew Point Wind Direction Speed kph Gust kph Barometer mB Rainfall Since 9am 24GHz 47GHz 76GHz 122GHz 134GHz 241GHz
09/05 14:50 31.9 71 23.85 26 26 30 1008.5 0 50.4 45.6 92.3 244.4 276.2 960.6
09/05 14:40 31.9 69 23.18 25.7 26 30 1008.5 0 49.0 44.3 89.1 235.9 265.8 924.4
09/05 14:30 31.9 69 23.18 25.7 26 32 1008.6 0 49.0 44.3 89.1 236.0 265.8 924.5
09/05 14:20 31.9 69 23.18 25.5 30 32 1008.6 0 49.0 44.3 89.1 236.0 265.8 924.5
09/05 14:10 32.3 71 24.36 26.4 28 30 1008.7 0 51.4 46.3 94.2 249.7 282.8 983.3
09/05 14:00 31.8 69 23.05 25.6 28 33 1008.9 0 48.7 44.1 88.6 234.7 264.3 918.9
09/05 13:50 32.2 70 23.89 26 28 33 1008.9 0 50.5 45.5 92.1 244.0 275.8 959.2
09/05 13:40 31.1 71 22.85 25.4 30 33 1009 0 48.4 44.1 88.5 234.4 263.7 916.8
09/05 13:30 31.6 68 22.48 25 28 35 1009.2 0 47.6 43.1 86.2 228.2 256.3 891.2
09/05 13:20 32 67 22.63 25.3 28 33 1009.4 0 47.8 43.2 86.4 228.9 257.2 894.5
09/05 13:10 32.1 67 22.75 25.4 32 35 1009.5 0 48.1 43.4 86.9 230.1 258.7 899.7
09/05 13:00 32.1 69 23.43 25.7 33 39 1009.7 0 49.5 44.7 90.1 238.7 269.2 936.1
09/05 12:50 31.1 68 21.88 24.5 33 39 1009.9 0 46.4 42.3 84.0 222.4 249.0 865.7
09/05 12:40 31.8 69 23.05 25.4 33 39 1010 0 48.7 44.2 88.7 234.9 264.4 919.6
09/05 12:30 32.1 70 23.77 25.9 32 41 1010.1 0 50.2 45.4 91.7 243.0 274.5 954.7
09/05 12:20 30.5 72 22.44 24.9 37 43 1010.2 0 47.6 43.7 87.3 231.2 259.6 902.7
09/05 12:10 31.6 72 23.8 25.9 30 35 1010.4 0 50.3 45.7 92.5 245.1 276.9 962.8
09/05 12:00 32.1 71 24.1 26.2 28 35 1010.5 0 50.9 46.0 93.4 247.3 279.8 972.8
09/05 11:50 31.9 69 23.18 25.5 30 33 1010.7 0 49.0 44.4 89.2 236.3 266.2 925.8
09/05 11:40 31.3 71 23.1 25.4 30 33 1010.8 0 48.9 44.6 89.6 237.2 267.1 928.9
09/05 11:30 32.1 69 23.43 25.7 28 35 1011 0 49.5 44.8 90.2 238.9 269.4 936.9
09/05 11:20 31.9 72 24.18 26.4 24 28 1011.1 0 51.1 46.3 94.0 249.1 281.9 980.2
09/05 11:10 31.5 71 23.34 25.6 28 35 1011.2 0 49.4 44.9 90.5 239.7 270.2 939.6
09/05 11:00 30.7 72 22.68 25.1 32 41 1011.4 0 48.1 44.1 88.3 233.9 262.8 913.9
09/05 10:50 31 72 23.05 25.4 32 35 1011.5 0 48.8 44.6 89.7 237.6 267.6 930.3
09/05 10:40 31.4 71 23.22 25.5 33 39 1011.5 0 49.1 44.8 90.1 238.5 268.8 934.5
09/05 10:30 30.6 74 23.18 25.4 32 39 1011.5 0 49.2 45.1 90.8 240.6 271.0 942.3
09/05 10:20 31.3 74 24.07 26.1 30 35 1011.4 0 50.9 46.5 94.3 249.7 282.5 982.1
09/05 10:10 31.1 71 22.85 25.4 32 37 1011.5 0 48.4 44.2 88.6 234.8 264.1 918.3
09/05 10:00 31.1 71 22.85 25.4 32 39 1011.5 0 48.4 44.2 88.6 234.8 264.1 918.3
09/05 09:50 30.7 71 22.36 24.8 35 39 1011.6 0 47.4 43.5 86.8 229.9 257.9 896.8
09/05 09:40 30.2 77 23.61 25.7 32 35 1011.7 0 50.1 46.2 93.4 247.4 279.4 971.2
09/05 09:30 30.4 75 23.25 25.5 28 33 1011.6 0 49.3 45.4 91.4 242.1 272.9 948.7
09/05 09:20 30.2 73 22.38 25 32 35 1011.5 0 47.5 43.8 87.5 231.6 260.0 903.8
09/05 09:10 29.5 78 23.03 25.3 28 32 1011.5 0 49.0 45.4 91.4 242.2 272.7 947.9
09/05 09:00 30.5 75 23.37 25.6 30 37 1011.5 0 49.6 45.5 91.9 243.3 274.4 954.0
09/05 08:50 30.1 75 22.87 25.2 28 35 1011.5 0 48.6 44.8 89.9 238.2 268.0 931.6
09/05 08:40 29.4 77 22.61 24.9 28 35 1011.5 0 48.1 44.7 89.5 237.0 266.4 926.0
09/05 08:30 29.2 76 22.07 24.5 30 39 1011.4 0 47.0 43.7 87.1 230.7 258.6 898.9
09/05 08:20 29 78 22.41 24.8 30 35 1011.3 0 47.7 44.5 89.0 235.7 264.6 919.8
09/05 08:10 29 78 22.41 24.8 30 32 1011.1 0 47.7 44.5 89.0 235.6 264.6 919.7
09/05 08:00 28.9 77 22 24.5 30 39 1010.9 0 46.9 43.7 87.1 230.7 258.5 898.4
09/05 07:50 28.8 77 21.88 24.4 30 33 1010.8 0 46.6 43.5 86.6 229.4 256.9 893.0
09/05 07:40 28.6 79 22.2 24.6 28 32 1010.8 0 47.3 44.3 88.4 234.1 262.6 912.9
09/05 07:30 28.2 80 22 24.4 32 39 1010.7 0 47.0 44.1 87.9 232.8 260.9 906.6
09/05 07:20 27.9 81 21.91 24.3 30 37 1010.6 0 46.8 44.1 87.8 232.5 260.5 905.2
09/05 07:10 27.7 81 21.67 24.1 32 33 1010.5 0 46.3 43.7 86.9 230.0 257.4 894.4
09/05 07:00 27.5 83 21.96 24.4 32 41 1010.3 0 47.0 44.4 88.5 234.4 262.6 912.7
09/05 06:50 27.3 82 21.46 24 33 37 1010.1 0 45.9 43.5 86.3 228.5 255.3 887.3
09/05 06:40 27.3 82 21.46 24 37 41 1010 0 45.9 43.5 86.3 228.4 255.3 887.3
09/05 06:30 27.5 84 22.23 24.6 33 43 1009.9 0 47.6 44.9 89.8 237.8 266.9 927.5
09/05 06:20 27.4 83 21.84 24.3 32 37 1009.9 0 46.7 44.2 88.0 233.1 261.0 907.0
09/05 06:10 27.3 84 21.98 24.4 26 32 1009.8 0 47.1 44.5 88.8 235.2 263.6 915.9
09/05 06:00 27.1 85 22 24.4 32 39 1009.6 0 47.1 44.6 89.1 236.0 264.6 919.4
09/05 05:50 27.1 86 22.26 24.6 30 35 1009.6 0 47.7 45.1 90.4 239.5 268.8 934.0
09/05 05:40 27.1 83 21.48 24 26 30 1009.6 0 46.0 43.6 86.6 229.2 256.3 890.5
09/05 05:30 27.2 83 21.6 24.1 32 46 1009.6 0 46.3 43.8 87.1 230.5 257.8 895.9
09/05 05:20 27.5 83 21.96 24.3 30 33 1009.6 0 47.0 44.3 88.5 234.3 262.5 912.3
09/05 05:10 27.4 83 21.84 24.3 32 35 1009.5 0 46.7 44.1 88.0 233.0 260.9 906.8
09/05 05:00 27.4 82 21.58 24.1 33 41 1009.6 0 46.2 43.6 86.7 229.6 256.8 892.4
09/05 04:50 27.3 82 21.46 24 33 37 1009.6 0 46.0 43.5 86.3 228.4 255.3 887.0
09/05 04:40 27.3 82 21.46 24 30 35 1009.7 0 46.0 43.5 86.3 228.4 255.3 887.1
09/05 04:30 27.4 81 21.31 23.8 32 39 1009.7 0 45.6 43.1 85.4 226.2 252.6 877.7
09/05 04:20 27.4 83 21.84 24.3 33 35 1009.8 0 46.7 44.2 88.0 233.0 261.0 906.9
09/05 04:10 27.3 83 21.72 24.2 32 37 1009.8 0 46.5 44.0 87.5 231.8 259.4 901.5
09/05 04:00 27.2 83 21.6 24.1 32 39 1009.8 0 46.3 43.8 87.1 230.5 257.9 896.1
09/05 03:50 27.1 83 21.48 24 24 30 1009.8 0 46.0 43.6 86.6 229.3 256.3 890.6
09/05 03:40 27.1 81 20.96 23.6 30 35 1009.9 0 44.9 42.6 84.1 222.6 248.1 862.1
09/05 03:30 27.1 81 20.96 23.6 30 39 1010 0 44.9 42.6 84.1 222.6 248.1 862.2
09/05 03:20 27.1 80 20.7 23.3 32 35 1010.1 0 44.4 42.1 82.9 219.3 244.1 848.1
09/05 03:10 27.2 80 20.82 23.4 33 37 1010.1 0 44.6 42.3 83.3 220.6 245.6 853.5
09/05 03:00 27.3 82 21.46 24 28 39 1010.2 0 45.9 43.5 86.3 228.5 255.4 887.4
09/05 02:50 27.3 82 21.46 24 30 35 1010.3 0 45.9 43.5 86.3 228.5 255.4 887.4
09/05 02:40 27.2 82 21.34 23.9 30 37 1010.4 0 45.7 43.3 85.8 227.3 253.8 882.1
09/05 02:30 27.1 81 20.96 23.6 30 39 1010.3 0 44.9 42.6 84.1 222.7 248.2 862.4
09/05 02:20 27.3 81 21.2 23.7 32 35 1010.4 0 45.4 43.0 85.1 225.2 251.3 873.2
09/05 02:10 27.2 81 21.08 23.7 30 33 1010.4 0 45.2 42.8 84.6 223.9 249.7 867.8
09/05 02:00 27.3 81 21.2 23.7 33 41 1010.5 0 45.4 43.0 85.1 225.2 251.3 873.3
09/05 01:50 27.4 83 21.84 24.3 30 33 1010.6 0 46.7 44.2 88.1 233.2 261.1 907.4
09/05 01:40 27.3 82 21.46 24 28 32 1010.6 0 45.9 43.5 86.3 228.5 255.4 887.6
09/05 01:30 27.3 80 20.93 23.5 32 39 1010.8 0 44.8 42.5 83.8 221.8 247.1 858.7
09/05 01:20 27.3 79 20.67 23.3 32 35 1010.8 0 44.3 42.0 82.5 218.5 243.1 844.6
09/05 01:10 27.4 80 21.05 23.6 32 35 1011 0 45.1 42.7 84.3 223.0 248.7 864.2
09/05 01:00 27.3 80 20.93 23.5 32 41 1011 0 44.8 42.5 83.8 221.8 247.1 858.8
09/05 00:50 27.3 80 20.93 23.5 32 37 1011.1 0 44.8 42.5 83.8 221.8 247.2 858.9
09/05 00:40 27.3 79 20.67 23.3 33 39 1011.1 0 44.3 42.0 82.6 218.5 243.1 844.8
09/05 00:30 27.3 80 20.93 23.5 32 41 1011.2 0 44.8 42.5 83.8 221.8 247.2 859.0
09/05 00:20 27.4 79 20.79 23.4 30 35 1011.3 0 44.5 42.2 83.0 219.8 244.7 850.3
09/05 00:10 27.5 79 20.9 23.5 35 39 1011.4 0 44.7 42.4 83.5 220.9 246.1 855.2
09/05 00:00 27.5 80 21.17 23.7 30 39 1011.4 0 45.3 42.9 84.7 224.4 250.3 869.8
08/05 23:50 27.5 79 20.9 23.5 30 35 1011.4 0 44.7 42.4 83.5 220.9 246.1 855.2
08/05 23:40 27.5 79 20.9 23.5 30 35 1011.4 0 44.7 42.4 83.5 220.9 246.1 855.2
08/05 23:30 27.6 80 21.28 23.8 33 43 1011.5 0 45.5 43.0 85.2 225.5 251.7 874.7
08/05 23:20 27.5 78 20.64 23.3 35 43 1011.5 0 44.2 41.9 82.2 217.6 242.1 841.2
08/05 23:10 27.5 78 20.64 23.3 37 43 1011.6 0 44.2 41.9 82.2 217.6 242.1 841.2
08/05 23:00 27.6 80 21.28 23.8 33 41 1011.6 0 45.5 43.0 85.2 225.5 251.7 874.8
08/05 22:50 27.5 79 20.9 23.5 33 37 1011.7 0 44.7 42.4 83.5 221.0 246.1 855.3
08/05 22:40 27.5 79 20.9 23.5 37 39 1011.6 0 44.7 42.4 83.5 220.9 246.1 855.3
08/05 22:30 27.6 78 20.75 23.4 35 41 1011.6 0 44.4 42.0 82.6 218.7 243.5 846.0
08/05 22:20 27.7 79 21.13 23.7 33 39 1011.6 0 45.2 42.7 84.3 223.3 249.0 865.5

Last Refresh: 09-May-2026 14:54:07

Bureau of Meteorology